Weather History for Lufkin, TX

Change the Weather History Date:

Tuesday, February 28, 2012

  Actual Average Record
Temperature  
Mean Temperature 70 °F 56 °F  
Max Temperature 78 °F 67 °F 89 °F (1940)
Min Temperature 62 °F 45 °F 24 °F (2002)
Degree Days  
Heating Degree Days 0 10  
Month to date heating degree days 279 354  
Since 1 July heating degree days 1347 1634  
Cooling Degree Days 5 1  
Month to date cooling degree days 37 11  
Year to date cooling degree days 46 19  
Growing Degree Days 20 (Base 50)    
Moisture  
Dew Point 62 °F    
Average Humidity 75    
Maximum Humidity 90    
Minimum Humidity 60    
Precipitation  
Precipitation T in 0.13 in 1.57 in (1963)
Month to date precipitation 3.40 3.87  
Year to date precipitation 8.72 8.05  
Snow  
Snow 0.00 in - - ()
Month to date snowfall 0.0  
Since 1 July snowfall 0.0  
Snow Depth 0.00 in    
Sea Level Pressure  
Sea Level Pressure 30.07 in    
Wind  
Wind Speed 10 mph (SSE)    
Max Wind Speed 20 mph    
Max Gust Speed 26 mph    
Visibility 9 miles    
Events      
T = Trace of Precipitation, MM = Missing Value Source: NWS Daily Summary

Daily Weather History Graph

Daily Weather History Graph

Search for Another Location

Airport:

Trip Planner

Search our weather history database for the weather conditions in past years. The results will help you decide how hot, cold, wet, or windy it might be!

Date:

Astronomy

Feb. 28, 2012 Rise Set
Actual Time 6:47 AM CST 6:16 PM CST
Civil Twilight 6:23 AM CST 6:40 PM CST
Nautical Twilight 5:54 AM CST 7:08 PM CST
Astronomical Twilight 5:26 AM CST 7:36 PM CST
Moon 10:23 AM CST (2/28) No Moon Set
Length of Visible Light 12h 17m
Length of Day
11h 28m
Waxing Crescent, 38% of the Moon is Illuminated
Feb 28
Waxing Crescent
Feb 29
First Quarter
Mar 8
Full
Mar 14
Last Quarter
Mar 22
New

Hourly Weather History & Observations

Time (CST) Temp. Dew Point Humidity Pressure Visibility Wind Dir Wind Speed Gust Speed Precip Events Conditions
12:53 AM 64.0 °F 55.9 °F 75% 30.17 in 10.0 mi ESE 8.1 mph - N/A   Overcast
1:48 AM 64.4 °F 57.2 °F 77% 30.16 in 10.0 mi SE 9.2 mph - N/A   Overcast
1:53 AM 64.0 °F 57.0 °F 78% 30.16 in 10.0 mi SE 8.1 mph - N/A   Overcast
2:53 AM 63.0 °F 57.0 °F 81% 30.14 in 10.0 mi SE 6.9 mph - N/A   Overcast
3:23 AM 62.6 °F 57.2 °F 82% 30.15 in 10.0 mi SE 5.8 mph - N/A   Overcast
3:53 AM 63.0 °F 57.9 °F 84% 30.13 in 10.0 mi SE 5.8 mph - N/A   Overcast
4:53 AM 62.1 °F 57.9 °F 86% 30.13 in 10.0 mi SE 5.8 mph - N/A   Overcast
5:53 AM 62.1 °F 57.9 °F 86% 30.13 in 10.0 mi SE 8.1 mph - N/A   Overcast
6:53 AM 62.1 °F 59.0 °F 90% 30.13 in 4.0 mi SE 6.9 mph - N/A   Overcast
7:26 AM 62.6 °F 59.0 °F 88% 30.15 in 4.0 mi SE 5.8 mph - N/A   Overcast
7:41 AM 62.6 °F 59.0 °F 88% 30.15 in 2.5 mi ESE 5.8 mph - N/A   Overcast
7:53 AM 62.1 °F 59.0 °F 90% 30.14 in 2.0 mi ESE 6.9 mph - N/A   Overcast
8:28 AM 62.6 °F 59.0 °F 88% 30.16 in 4.0 mi SE 6.9 mph - N/A   Overcast
8:53 AM 63.0 °F 59.0 °F 87% 30.15 in 7.0 mi SE 8.1 mph - N/A   Overcast
9:41 AM 64.4 °F 60.8 °F 88% 30.14 in 9.0 mi SE 8.1 mph - N/A   Overcast
9:53 AM 64.0 °F 60.1 °F 87% 30.13 in 9.0 mi SE 9.2 mph - N/A   Overcast
10:53 AM 68.0 °F 61.0 °F 78% 30.12 in 10.0 mi SSE 10.4 mph - N/A   Overcast
11:51 AM 73.4 °F 64.4 °F 73% 30.10 in 10.0 mi SSE 8.1 mph - N/A   Mostly Cloudy
11:53 AM 73.0 °F 63.0 °F 71% 30.09 in 10.0 mi SSE 11.5 mph 17.3 mph N/A   Mostly Cloudy
12:00 PM 73.4 °F 64.4 °F 73% 30.09 in 10.0 mi SE 11.5 mph 17.3 mph N/A   Mostly Cloudy
12:53 PM 78.1 °F 64.0 °F 62% 30.06 in 10.0 mi South 15.0 mph 21.9 mph N/A   Mostly Cloudy
1:53 PM 77.0 °F 63.0 °F 62% 30.02 in 10.0 mi South 11.5 mph - N/A   Overcast
2:53 PM 75.9 °F 64.0 °F 67% 30.01 in 10.0 mi South 11.5 mph 20.7 mph N/A   Overcast
3:03 PM 75.2 °F 64.4 °F 69% 30.02 in 10.0 mi SSW 12.7 mph 23.0 mph N/A   Overcast
3:14 PM 75.2 °F 64.4 °F 69% 30.01 in 10.0 mi South 9.2 mph 17.3 mph N/A   Overcast
3:53 PM 75.9 °F 64.9 °F 69% 30.00 in 10.0 mi South 8.1 mph - N/A   Overcast
4:31 PM 75.2 °F 64.4 °F 69% 30.00 in 10.0 mi South 10.4 mph 25.3 mph 0.00 in   Overcast
4:53 PM 75.0 °F 64.0 °F 69% 30.00 in 10.0 mi South 11.5 mph - 0.00 in   Overcast
5:20 PM 73.4 °F 64.4 °F 73% 29.99 in 10.0 mi SSE 10.4 mph 20.7 mph N/A   Overcast
5:53 PM 73.0 °F 64.9 °F 76% 29.98 in 10.0 mi SSE 13.8 mph - N/A   Mostly Cloudy
6:25 PM 71.6 °F 64.4 °F 78% 29.99 in 9.0 mi SSE 11.5 mph 20.7 mph N/A   Scattered Clouds
6:53 PM 72.0 °F 64.0 °F 76% 29.98 in 10.0 mi SSE 13.8 mph 18.4 mph N/A   Scattered Clouds
7:53 PM 71.1 °F 64.0 °F 78% 29.98 in 10.0 mi SSE 12.7 mph - N/A   Clear
8:14 PM 71.6 °F 64.4 °F 78% 30.00 in 10.0 mi South 10.4 mph 19.6 mph N/A   Mostly Cloudy
8:53 PM 72.0 °F 64.0 °F 76% 29.99 in 10.0 mi South 11.5 mph 18.4 mph N/A   Overcast
9:53 PM 72.0 °F 64.0 °F 76% 30.00 in 10.0 mi SSE 15.0 mph 23.0 mph N/A   Mostly Cloudy
10:07 PM 71.6 °F 64.4 °F 78% 30.02 in 10.0 mi South 11.5 mph 25.3 mph N/A   Scattered Clouds
10:53 PM 71.1 °F 63.0 °F 75% 30.03 in 10.0 mi SSW 8.1 mph - N/A   Mostly Cloudy
11:37 PM 69.8 °F 62.6 °F 78% 30.03 in 10.0 mi South 9.2 mph - N/A   Scattered Clouds
11:53 PM 70.0 °F 63.0 °F 78% 30.04 in 10.0 mi South 6.9 mph - N/A   Mostly Cloudy